This demonstration page uses our WeatherBlox Daily Observations layout. Learn more.

Left ArrowRight Arrow

53.62937, 11.41316

Hourly Observations for August 14, 2021

Temp ( °F °C ) Dew Point ( °F °C ) Humidity (%) Winds ( mph kmh ) Pressure ( in mb ) Visibility ( mi km ) Precip ( " mm )
7:20 am 07:20 Mostly Sunny 59 15 57 14 94 94 S 5 7 30.09 1019 7 11 N/A
7:50 am 07:50 Mostly Sunny 59 15 57 14 94 94 S 7 11 30.09 1019 7 11 N/A
8:20 am 08:20 Mostly Sunny 61 16 57 14 88 88 S 6 9 30.09 1019 7 11 N/A
8:50 am 08:50 Mostly Sunny 61 16 57 14 88 88 S 7 11 30.09 1019 7 11 N/A
9:20 am 09:20 Mostly Sunny 63 17 57 14 83 83 S 8 13 30.09 1019 7 11 N/A
9:50 am 09:50 Mostly Sunny 64 18 57 14 78 78 S 9 15 30.09 1019 7 11 N/A
10:20 am 10:20 Mostly Sunny 68 20 57 14 69 69 S 10 17 30.09 1019 7 11 N/A
10:50 am 10:50 Mostly Sunny 70 21 55 13 60 60 S 13 20 30.06 1018 30 48 N/A
11:20 am 11:20 Mostly Sunny 70 21 57 14 64 64 S 14 22 30.06 1018 30 48 N/A
11:50 am 11:50 Partly Cloudy 72 22 57 14 61 61 S 14 22 30.06 1018 30 48 N/A
12:20 pm 12:20 Partly Cloudy 72 22 57 14 61 61 S 13 20 30.06 1018 30 48 N/A
12:50 pm 12:50 Partly Cloudy 72 22 57 14 61 61 S 14 22 30.03 1017 30 48 N/A
1:20 pm 13:20 Partly Cloudy 72 22 57 14 61 61 SSW 15 24 30.03 1017 30 48 N/A
1:50 pm 13:50 Partly Cloudy 72 22 55 13 57 57 SSW 16 26 30.03 1017 30 48 N/A
2:20 pm 14:20 Partly Cloudy 73 23 55 13 53 53 SW 16 26 30.03 1017 30 48 N/A
2:50 pm 14:50 Partly Cloudy 73 23 55 13 53 53 SSW 15 24 30.03 1017 30 48 N/A
3:20 pm 15:20 Partly Cloudy 72 22 55 13 57 57 SSW 16 26 30.03 1017 30 48 N/A
3:50 pm 15:50 Partly Cloudy 72 22 55 13 57 57 SW 16 26 30.03 1017 30 48 N/A
4:20 pm 16:20 Mostly Sunny 72 22 55 13 57 57 SW 16 26 30.03 1017 30 48 N/A
4:50 pm 16:50 Mostly Sunny 72 22 55 13 57 57 SW 15 24 30.00 1016 30 48 N/A
5:20 pm 17:20 Partly Cloudy with Showers Nearby 72 22 57 14 61 61 SW 8 13 30.00 1016 30 48 N/A
5:50 pm 17:50 Partly Cloudy with Showers Nearby 64 18 61 16 88 88 WSW 7 11 30.03 1017 4 7 N/A
6:20 pm 18:20 Partly Cloudy with Showers Nearby 64 18 61 16 88 88 WSW 7 11 30.00 1016 30 48 N/A
6:50 pm 18:50 Mostly Sunny 66 19 59 15 78 78 WSW 8 13 30.00 1016 30 48 N/A
7:20 pm 19:20 Partly Cloudy 66 19 59 15 78 78 WSW 8 13 30.00 1016 30 48 N/A
7:50 pm 19:50 Partly Cloudy 66 19 57 14 73 73 WSW 7 11 30.00 1016 30 48 N/A
8:20 pm 20:20 Mostly Sunny 64 18 55 13 73 73 WSW 7 11 30.00 1016 30 48 N/A
8:50 pm 20:50 Mostly Clear 64 18 55 13 73 73 WSW 7 11 30.00 1016 30 48 N/A

Powered by AerisWeather